CCA3229 ZSSS-ZPPP

Flight info

Callsign CCA3229
Flight time N/A
Altitude 30100
Route NXD61D NXD W131 AKDIM A470 SAGNU W132 OREXA DCT P395 DCT AVDIP W226 IPMUG W611 BIVAV W138 DYG W140 HUY A581 QNX W136 XISLI XISLI3C
Aircraft B738/M-SDE3FGHIRWY/LB1

Departure

Time 2026-05-04 11:56
Airport Shanghai Hongqiao International Airport (ZSSS)

Arrival

Time N/A
Airport Kunming Changshui International Airport (ZPPP)
Time Latitude Longitude Altitude Speed Heading
2026-05-04 11:33 31.19593 121.32527 18 ft 0 kts 267°
2026-05-04 11:44 31.19594 121.32538 18 ft 1 kts 267°
2026-05-04 11:44 31.19594 121.32555 18 ft 1 kts 268°
2026-05-04 11:44 31.19595 121.32574 18 ft 1 kts 267°
2026-05-04 11:44 31.19596 121.32590 18 ft 2 kts 267°
2026-05-04 11:45 31.19596 121.32600 18 ft 2 kts 268°
2026-05-04 11:45 31.19596 121.32609 18 ft 1 kts 267°
2026-05-04 11:45 31.19597 121.32616 18 ft 0 kts 267°
2026-05-04 11:45 31.19597 121.32630 18 ft 1 kts 251°
2026-05-04 11:46 31.19604 121.32644 18 ft 2 kts 231°
2026-05-04 11:46 31.19615 121.32655 18 ft 2 kts 209°
2026-05-04 11:46 31.19626 121.32661 18 ft 2 kts 191°
2026-05-04 11:46 31.19635 121.32662 18 ft 0 kts 179°
2026-05-04 11:47 31.19641 121.32661 18 ft 0 kts 175°
2026-05-04 11:47 31.19642 121.32661 18 ft 0 kts 176°
2026-05-04 11:47 31.19641 121.32661 18 ft 0 kts 176°
2026-05-04 11:48 31.19640 121.32661 18 ft 2 kts 176°
2026-05-04 11:48 31.19601 121.32671 18 ft 5 kts 138°
2026-05-04 11:48 31.19589 121.32709 18 ft 6 kts 108°
2026-05-04 11:49 31.19572 121.32781 18 ft 7 kts 95°
2026-05-04 11:49 31.19581 121.32832 18 ft 5 kts 79°
2026-05-04 11:49 31.19582 121.32904 18 ft 13 kts 89°
2026-05-04 11:49 31.19589 121.33015 18 ft 12 kts 75°
2026-05-04 11:50 31.19685 121.33061 18 ft 17 kts 356°
2026-05-04 11:50 31.19797 121.33054 18 ft 18 kts 357°
2026-05-04 11:50 31.19936 121.33049 18 ft 16 kts 359°
2026-05-04 11:50 31.20048 121.33048 18 ft 14 kts 360°
2026-05-04 11:51 31.20147 121.33044 18 ft 13 kts 356°
2026-05-04 11:51 31.20245 121.33036 18 ft 15 kts 356°
2026-05-04 11:51 31.20361 121.33028 17 ft 16 kts 357°
2026-05-04 11:51 31.20479 121.33019 15 ft 20 kts 355°
2026-05-04 11:52 31.20588 121.33011 16 ft 20 kts 358°
2026-05-04 11:52 31.20709 121.33008 18 ft 16 kts 359°
2026-05-04 11:52 31.20808 121.33004 18 ft 16 kts 355°
2026-05-04 11:52 31.20898 121.32996 18 ft 16 kts 356°
2026-05-04 11:53 31.20961 121.32993 18 ft 15 kts 357°
2026-05-04 11:53 31.21039 121.32988 18 ft 14 kts 357°
2026-05-04 11:53 31.21120 121.32989 18 ft 11 kts 21°
2026-05-04 11:53 31.21155 121.33057 18 ft 3 kts 84°
2026-05-04 11:55 31.17884 121.33342 454 ft 173 kts 175°
2026-05-04 11:56 31.16397 121.33437 921 ft 187 kts 174°
2026-05-04 11:56 31.12792 121.33621 1857 ft 215 kts 176°
2026-05-04 11:57 31.10961 121.33703 2060 ft 235 kts 176°